Location: Blackie
(50.6050°N, 113.6230°W)
Time: 08:50:58
(UTC+00:00)

ISS - Pass Details

Date: 07 December 2021
Orbit: 413 x 422 km, 51.6° (Epoch: 27 January)

Event Time Altitude Azimuth Distance (km) Brightness Sun altitude
Rises 00:32:06 0° 286° (WNW) 2,390 0.9 -9.3°
Reaches altitude 10° 00:34:16 10° 280° (W) 1,520 0.0 -9.6°
Maximum altitude 00:37:32 44° 207° (SSW) 596 -2.6 -10.0°
Drops below altitude 10° 00:40:47 10° 134° (SE) 1,507 -1.2 -10.5°
Enters shadow 00:42:55 - 128° (SE) 2,368 -0.2 -10.8°
